User: anonymous
Location: Cape Cod Imaging Station
(41.7417°N, 70.1583°W)
Time: 14:01:13
(UTC-04:00)
Language:

Cosmos 1508 Rocket - Orbit

View from above orbital plane
View from above orbital plane
View from above satellite
View from above satellite

Ground track
Ground track

The orbit data is extracted from the following two-line orbital elements,

1 14484U 83111B   14233.49000503  .00034984  00000-0  49940-3 0  6005
2 14484 082.8375 265.8759 0205137 040.4511 095.1605 15.35328310582564
Epoch (UTC): 21 August 2014 11:45:36
Eccentricity: 0.0205137
inclination: 82.8375°
perigee height: 319 km
apogee height: 600 km
right ascension of ascending node: 265.8759°
argument of perigee: 40.4511°
revolutions per day: 15.35328310
mean anomaly at epoch: 95.1605°
orbit number at epoch: 58256

The dashed part of the orbit path shows where the satellite is in the earth's shadow,  

DLR